Weather in Mga

Russia / Saint-Petersburg and Leningrad Oblast     59°45′09″N   31°03′21″E
temp.,
°C
wind,
m/s
gust,
m/s
humid.,
%
clouds,
%
prec.,
mm/h
press.,
hPa
HPBL,
m
17 april, sat
sat1700:00+5ne3118250 0.0 1030359
03:00+3ne3118933 0.0 1030292
06:00+2ne3108910 0.0 1030236
09:00+7ene49615 0.0 1030440
12:00+12ene57405 0.0 10301021
15:00+14ene46345 0.0 10291302
18:00+12nne48485 0.0 1029775
21:00+7ne310705 0.0 1029252
18 april, sun
sun1800:00+5ene310853 0.0 1030282
03:00+3ne29955 0.0 1030207
06:00+2ne29955 0.0 1030196
09:00+8ene37645 0.0 1030449
12:00+12ene46445 0.0 10301416
15:00+13ne57415 0.0 10291607
18:00+11nne485029 0.0 10291079
21:00+7ne267410 0.0 1030118
19 april, mon
mon1900:00+6ene398284 0.0 1031256
03:00+4ene27949 0.0 1031179
06:00+2ene26965 0.0 1031158
09:00+7ene35673 0.0 1032551
12:00+11ene45412 0.0 10311283
15:00+12ene45330 0.0 10301622
18:00+11ene35383 0.0 10291417
21:00+5ene23600 0.0 102955
20 april, tue
tue2000:00+4ese310675 0.0 1028272
03:00+2e28733 0.0 1027179
06:00+1e3978100 0.0 1026208
09:00+5ese366762 0.0 1025535
12:00+8ese465197 0.0 10231435
15:00+11ese453452 0.0 10211750
18:00+10ese3644100 0.0 10191729
21:00+7e3864100 0.0 1017409
21 april, wed
wed2100:00+5e3892100 0.1 1014782
03:00+4ne41095100 1.6 1010754
06:00+3ne41097100 3.4 1005681
09:00+2ene3899100 4.8 1002516
12:00+3ene2698100 0.1 1000493
15:00+3ene1398100 0.5 998291
18:00+3wnw2298100 0.6 998458
21:00+2w3697100 1.0 999460